Change the Weather History Date:

Saturday, August 9, 2014

  Actual Average (KAMN) Record (KAMN)
Temperature  
Mean Temperature 66 °F -  
Max Temperature 79 °F 81 °F 95 °F (1988)
Min Temperature 52 °F 58 °F 41 °F (1964)
Growing Degree Days 16 (Base 50)    
Moisture  
Dew Point 57 °F    
Average Humidity 78    
Maximum Humidity 99    
Minimum Humidity 44    
Precipitation  
Precipitation 0.00 in - - ()
Sea Level Pressure  
Sea Level Pressure 30.16 in    
Wind  
Wind Speed 2 mph (ENE)    
Max Wind Speed 12 mph    
Max Gust Speed 16 mph    
Visibility 7 miles    
Events Fog    
Averages and records for this station are not official NWS values.
T = Trace of Precipitation, MM = Missing Value Source: NWS Daily Summary

Daily Weather History Graph

Daily Weather History Graph

Search for Another Location

Airport or City:

Trip Planner

Search our weather history database for the weather conditions in past years. The results will help you decide how hot, cold, wet, or windy it might be!

Date:

Astronomy

Aug. 09, 2014 Rise Set
Actual Time 6:36 AM EDT 8:51 PM EDT
Civil Twilight 6:05 AM EDT 9:22 PM EDT
Nautical Twilight 5:25 AM EDT 10:01 PM EDT
Astronomical Twilight 4:42 AM EDT 10:45 PM EDT
Moon 7:51 PM EDT (8/9) 5:16 AM EDT (8/9)
Length of Visible Light 15h 17m
Length of Day
14h 14m
Waxing Gibbous, 98% of the Moon is Illuminated
Aug 9
Waxing Gibbous
Aug 10
Full
Aug 17
Last Quarter
Aug 25
New
Sep 2
First Quarter

Hourly Weather History & Observations

Time (EDT) Temp. Dew Point Humidity Pressure Visibility Wind Dir Wind Speed Gust Speed Precip Events Conditions
12:16 AM 60.1 °F 58.5 °F 94% 30.15 in 10.0 mi Calm Calm - N/A   Clear
12:36 AM 59.0 °F 57.7 °F 96% 30.15 in 10.0 mi Calm Calm - N/A   Clear
1:16 AM 57.6 °F 56.7 °F 97% 30.16 in 0.8 mi Calm Calm - N/A   Mist
1:36 AM 55.8 °F 54.9 °F 97% 30.16 in 0.2 mi Calm Calm - N/A Fog Fog
1:57 AM 56.8 °F 56.1 °F 97% 30.16 in 0.5 mi Calm Calm - N/A Fog Fog
2:16 AM 55.9 °F 55.0 °F 97% 30.16 in 0.5 mi Calm Calm - N/A Fog Fog
2:37 AM 55.2 °F 54.7 °F 98% 30.15 in 0.8 mi Calm Calm - N/A   Mist
2:57 AM 54.9 °F 54.3 °F 98% 30.15 in 1.0 mi Calm Calm - N/A   Mist
3:16 AM 56.1 °F 55.4 °F 97% 30.15 in 0.2 mi Calm Calm - N/A Fog Fog
3:37 AM 54.9 °F 54.1 °F 97% 30.15 in 0.2 mi Calm Calm - N/A Fog Fog
3:57 AM 55.6 °F 55.0 °F 98% 30.15 in 1.2 mi Calm Calm - N/A   Mist
4:16 AM 54.9 °F 54.1 °F 97% 30.16 in 0.5 mi Calm Calm - N/A Fog Fog
4:37 AM 54.3 °F 53.6 °F 97% 30.16 in 0.2 mi Calm Calm - N/A Fog Fog
4:56 AM 54.3 °F 53.6 °F 97% 30.16 in 0.5 mi Calm Calm - N/A Fog Fog
5:16 AM 54.7 °F 54.0 °F 97% 30.17 in 0.5 mi Calm Calm - N/A Fog Fog
5:37 AM 53.4 °F 52.7 °F 97% 30.17 in 0.2 mi Calm Calm - N/A Fog Fog
5:56 AM 53.6 °F 52.9 °F 97% 30.17 in 0.5 mi Calm Calm - N/A Fog Fog
6:16 AM 52.9 °F 52.2 °F 97% 30.17 in 0.5 mi Calm Calm - N/A Fog Fog
6:37 AM 52.0 °F 51.3 °F 97% 30.17 in 0.5 mi Calm Calm - N/A Fog Fog
6:56 AM 52.2 °F 51.8 °F 99% 30.17 in 0.5 mi Calm Calm - N/A Fog Fog
7:16 AM 54.5 °F 53.8 °F 97% 30.17 in 0.2 mi Calm Calm - N/A Fog Fog
7:37 AM 53.8 °F 53.2 °F 98% 30.17 in 2.0 mi Calm Calm - N/A   Clear
7:56 AM 55.9 °F 55.4 °F 98% 30.17 in 4.0 mi Calm Calm - N/A   Clear
8:17 AM 57.4 °F 56.8 °F 98% 30.18 in 7.0 mi Calm Calm - N/A   Clear
8:37 AM 58.5 °F 57.6 °F 97% 30.18 in 7.0 mi Calm Calm - N/A   Clear
8:56 AM 59.4 °F 58.3 °F 96% 30.18 in 10.0 mi Calm Calm - N/A   Clear
9:17 AM 60.8 °F 59.2 °F 94% 30.18 in 10.0 mi Calm Calm - N/A   Clear
9:37 AM 62.6 °F 59.5 °F 90% 30.18 in 10.0 mi Calm Calm - N/A   Clear
9:56 AM 66.0 °F 60.1 °F 81% 30.18 in 10.0 mi North 4.6 mph - N/A   Clear
10:17 AM 68.4 °F 61.2 °F 78% 30.18 in 10.0 mi North 4.6 mph - N/A   Clear
10:36 AM 70.0 °F 61.9 °F 75% 30.18 in 10.0 mi North 4.6 mph - N/A   Clear
10:56 AM 71.1 °F 61.5 °F 72% 30.18 in 10.0 mi NE 5.8 mph - N/A   Clear
11:17 AM 72.7 °F 60.4 °F 65% 30.18 in 10.0 mi NE 6.9 mph - N/A   Clear
11:36 AM 73.4 °F 59.9 °F 63% 30.18 in 10.0 mi ENE 6.9 mph - N/A   Clear
11:56 AM 74.3 °F 59.0 °F 59% 30.18 in 10.0 mi East 6.9 mph - N/A   Clear
12:17 PM 74.8 °F 58.6 °F 57% 30.19 in 10.0 mi ENE 5.8 mph - N/A   Scattered Clouds
12:36 PM 75.7 °F 59.0 °F 56% 30.18 in 10.0 mi East 3.5 mph - N/A   Scattered Clouds
1:17 PM 77.0 °F 59.2 °F 54% 30.17 in 10.0 mi East 6.9 mph - N/A   Scattered Clouds
1:36 PM 77.5 °F 58.6 °F 52% 30.17 in 10.0 mi NNE 8.1 mph - N/A   Mostly Cloudy
1:56 PM 77.9 °F 59.2 °F 52% 30.17 in 10.0 mi NE 8.1 mph - N/A   Mostly Cloudy
2:17 PM 78.1 °F 58.1 °F 50% 30.16 in 10.0 mi ENE 8.1 mph - N/A   Scattered Clouds
2:36 PM 77.5 °F 57.6 °F 50% 30.16 in 10.0 mi East 8.1 mph - N/A   Scattered Clouds
2:57 PM 79.2 °F 56.8 °F 46% 30.15 in 10.0 mi East 10.4 mph 16.1 mph N/A   Scattered Clouds
3:17 PM 78.8 °F 57.4 °F 48% 30.15 in 10.0 mi ENE 8.1 mph - N/A   Scattered Clouds
3:36 PM 79.2 °F 57.2 °F 47% 30.15 in 10.0 mi East 11.5 mph - N/A   Scattered Clouds
3:57 PM 79.0 °F 56.7 °F 46% 30.15 in 10.0 mi ENE 10.4 mph 16.1 mph N/A   Clear
4:17 PM 78.4 °F 55.9 °F 46% 30.15 in 10.0 mi East 9.2 mph - N/A   Clear
4:57 PM 78.3 °F 54.5 °F 44% 30.14 in 10.0 mi ENE 8.1 mph - N/A   Clear
5:16 PM 78.4 °F 56.8 °F 47% 30.13 in 10.0 mi ESE 6.9 mph - N/A   Clear
5:57 PM 77.9 °F 57.7 °F 50% 30.13 in 10.0 mi ENE 8.1 mph - N/A   Clear
6:16 PM 77.9 °F 58.8 °F 52% 30.13 in 10.0 mi East 9.2 mph - N/A   Clear
6:36 PM 77.4 °F 58.8 °F 53% 30.12 in 10.0 mi ENE 9.2 mph - N/A   Clear
6:57 PM 77.0 °F 59.0 °F 54% 30.12 in 10.0 mi ENE 9.2 mph - N/A   Clear
7:16 PM 76.1 °F 58.8 °F 55% 30.12 in 10.0 mi ENE 6.9 mph - N/A   Clear
7:36 PM 75.0 °F 59.9 °F 59% 30.12 in 10.0 mi ENE 4.6 mph - N/A   Clear
7:57 PM 73.6 °F 60.3 °F 63% 30.12 in 10.0 mi NE 5.8 mph - N/A   Clear
8:16 PM 72.0 °F 60.3 °F 67% 30.12 in 10.0 mi NE 3.5 mph - N/A   Clear
8:36 PM 69.4 °F 60.3 °F 73% 30.12 in 10.0 mi NE 3.5 mph - N/A   Clear
8:57 PM 68.0 °F 60.1 °F 76% 30.12 in 10.0 mi NE 4.6 mph - N/A   Clear
9:16 PM 67.1 °F 59.9 °F 78% 30.12 in 10.0 mi NE 3.5 mph - N/A   Clear
9:56 PM 64.4 °F 59.7 °F 85% 30.13 in 10.0 mi Calm Calm - N/A   Clear
10:16 PM 62.1 °F 59.5 °F 91% 30.14 in 10.0 mi Calm Calm - N/A   Clear
10:37 PM 61.0 °F 59.2 °F 94% 30.14 in 10.0 mi NE 3.5 mph - N/A   Clear
10:56 PM 59.5 °F 58.5 °F 96% 30.14 in 10.0 mi NE 4.6 mph - N/A   Clear
11:37 PM 62.2 °F 59.0 °F 89% 30.14 in 10.0 mi ENE 4.6 mph - N/A   Clear
11:56 PM 61.7 °F 58.8 °F 90% 30.14 in 10.0 mi ENE 4.6 mph - N/A   Clear